San Antonio Stinson, TX

3:22 AM CDT on July 23, 2017 (GMT -0500)
Stinson Municipal

Weather History for KSSF - May, 2013

Change the Weather History Date:

Tuesday, May 14, 2013

  Actual Average Record
Temperature  
Mean Temperature 72 °F -  
Max Temperature 86 °F 85 °F 98 °F (2003)
Min Temperature 59 °F 65 °F 55 °F (2014)
Cooling Degree Days 6    
Growing Degree Days 22 (Base 50)    
Moisture  
Dew Point 62 °F    
Average Humidity 69    
Maximum Humidity 96    
Minimum Humidity 44    
Precipitation  
Precipitation 0.00 in - - ()
Sea Level Pressure  
Sea Level Pressure 30.11 in    
Wind  
Wind Speed 6 mph (SSE)    
Max Wind Speed 16 mph    
Max Gust Speed 26 mph    
Visibility 9 miles    
Events      
Averages and records for this station are not official NWS values.
T = Trace of Precipitation, MM = Missing Value Source: NWS Daily Summary

Daily Weather History Graph

Daily Weather History Graph

Search for Another Location

Airport or City:

Trip Planner

Search our weather history database for the weather conditions in past years. The results will help you decide how hot, cold, wet, or windy it might be!

Date:

Astronomy

May. 14, 2013 Rise Set
Actual Time 6:42 AM CDT 8:18 PM CDT
Civil Twilight 6:16 AM CDT 8:44 PM CDT
Nautical Twilight 5:45 AM CDT 9:15 PM CDT
Astronomical Twilight 5:12 AM CDT 9:48 PM CDT
Moon 10:22 AM CDT (5/14) No Moon Set
Length of Visible Light 14h 28m
Length of Day
13h 36m
Waxing Crescent, 19% of the Moon is Illuminated
May 14
Waxing Crescent
May 17
First Quarter
May 24
Full
May 31
Last Quarter
Jun 8
New

Hourly Weather History & Observations

Time (CDT) Temp. Heat Index Dew Point Humidity Pressure Visibility Wind Dir Wind Speed Gust Speed Precip Events Conditions
12:53 AM 68.0 °F - 55.0 °F 63% 30.19 in 10.0 mi SSE 5.8 mph - N/A   Clear
1:53 AM 66.0 °F - 55.9 °F 70% 30.17 in 10.0 mi ESE 3.5 mph - N/A   Clear
2:53 AM 64.0 °F - 55.9 °F 75% 30.16 in 10.0 mi Calm Calm - N/A   Clear
3:53 AM 63.0 °F - 57.9 °F 84% 30.15 in 10.0 mi Calm Calm - N/A   Clear
4:53 AM 63.0 °F - 59.0 °F 87% 30.14 in 10.0 mi East 4.6 mph - N/A   Clear
5:53 AM 64.0 °F - 60.1 °F 87% 30.15 in 10.0 mi Calm Calm - N/A   Partly Cloudy
6:53 AM 59.0 °F - 57.9 °F 96% 30.14 in 6.0 mi Calm Calm - N/A   Clear
7:29 AM 62.6 °F - 60.8 °F 94% 30.17 in 7.0 mi Calm Calm - N/A   Mostly Cloudy
7:53 AM 64.0 °F - 61.0 °F 90% 30.16 in 7.0 mi Calm Calm - N/A   Overcast
8:53 AM 66.9 °F - 63.0 °F 87% 30.19 in 7.0 mi South 4.6 mph - N/A   Overcast
9:53 AM 71.1 °F - 64.0 °F 78% 30.19 in 8.0 mi South 4.6 mph - N/A   Mostly Cloudy
10:10 AM 71.6 °F - 64.4 °F 78% 30.21 in 8.0 mi South 6.9 mph - N/A   Scattered Clouds
10:53 AM 73.9 °F - 62.1 °F 66% 30.18 in 10.0 mi Variable 5.8 mph - N/A   Partly Cloudy
11:53 AM 77.0 °F - 61.0 °F 58% 30.16 in 10.0 mi SSE 6.9 mph - N/A   Clear
12:53 PM 80.1 °F 81.1 °F 61.0 °F 52% 30.14 in 10.0 mi South 8.1 mph 17.3 mph N/A   Partly Cloudy
1:53 PM 81.0 °F 81.9 °F 62.1 °F 52% 30.11 in 10.0 mi SE 12.7 mph 16.1 mph N/A   Mostly Cloudy
2:53 PM 84.9 °F 85.0 °F 61.0 °F 44% 30.08 in 10.0 mi SSE 11.5 mph 21.9 mph N/A   Partly Cloudy
3:53 PM 84.0 °F 84.5 °F 62.1 °F 47% 30.06 in 10.0 mi SE 11.5 mph - N/A   Mostly Cloudy
4:53 PM 84.9 °F 85.0 °F 61.0 °F 44% 30.03 in 10.0 mi South 12.7 mph - N/A   Partly Cloudy
5:53 PM 84.9 °F 85.4 °F 62.1 °F 46% 30.00 in 10.0 mi South 13.8 mph - N/A   Partly Cloudy
6:53 PM 82.9 °F 83.7 °F 62.1 °F 49% 29.98 in 10.0 mi SSE 13.8 mph - N/A   Mostly Cloudy
7:53 PM 81.0 °F 82.7 °F 64.9 °F 58% 29.98 in 10.0 mi SE 16.1 mph 23.0 mph N/A   Mostly Cloudy
8:53 PM 77.0 °F - 64.9 °F 66% 30.00 in 10.0 mi SSE 12.7 mph 21.9 mph N/A   Clear
9:53 PM 75.0 °F - 66.0 °F 73% 30.03 in 10.0 mi SSE 13.8 mph 26.5 mph N/A   Mostly Cloudy
10:53 PM 73.9 °F - 66.9 °F 79% 30.06 in 10.0 mi SSE 13.8 mph 19.6 mph N/A   Mostly Cloudy
11:53 PM 73.0 °F - 66.9 °F 81% 30.07 in 10.0 mi SSE 6.9 mph - N/A   Overcast